Vancouver, British Columbia

1:18 AM PDT on May 27, 2017 (GMT -0700)
Vancouver International Airport

Weather History for CYVR - October, 2013

Change the Weather History Date:

Thursday, October 17, 2013

  Actual Average Record
Temperature  
Mean Temperature 46 °F -  
Max Temperature 51 °F 51 °F 62 °F (2003)
Min Temperature 40 °F 40 °F 39 °F (1996)
Degree Days  
Heating Degree Days 20    
Moisture  
Dew Point 46 °F    
Average Humidity 97    
Maximum Humidity 100    
Minimum Humidity 93    
Precipitation  
Precipitation 0.00 in 0.19 in - ()
Sea Level Pressure  
Sea Level Pressure 30.27 in    
Wind  
Wind Speed 4 mph ()    
Max Wind Speed 10 mph    
Max Gust Speed -    
Visibility 2.6 miles    
Events Fog    
Averages and records for this station are not official NWS values.
T = Trace of Precipitation, MM = Missing Value Source: Averaged Metar Reports

Daily Weather History Graph

Daily Weather History Graph

Search for Another Location

Airport or City:

Trip Planner

Search our weather history database for the weather conditions in past years. The results will help you decide how hot, cold, wet, or windy it might be!

Date:

Astronomy

Oct. 17, 2013 Rise Set
Actual Time 7:37 AM PDT 6:17 PM PDT
Civil Twilight 7:04 AM PDT 6:50 PM PDT
Nautical Twilight 6:28 AM PDT 7:26 PM PDT
Astronomical Twilight 5:51 AM PDT 8:03 PM PDT
Moon 5:37 PM PDT (10/17) 6:10 AM PDT (10/17)
Length of Visible Light 11h 45m
Length of Day
10h 40m
Waxing Gibbous, 98% of the Moon is Illuminated
Oct 17
Waxing Gibbous
Oct 18
Full
Oct 26
Last Quarter
Nov 3
New
Nov 9
First Quarter

Hourly Weather History & Observations

Time (PDT) Temp. Windchill Dew Point Humidity Pressure Visibility Wind Dir Wind Speed Gust Speed Precip Events Conditions
12:00 AM 44.6 °F 42.2 °F 44.6 °F 100% 30.21 in 20.0 mi East 4.6 mph - N/A Fog Shallow Fog
1:00 AM 42.8 °F - 42.8 °F 100% 30.22 in 15.0 mi Calm Calm - N/A Fog Shallow Fog
2:00 AM 44.6 °F 43.1 °F 44.6 °F 100% 30.23 in 15.0 mi ENE 3.5 mph - N/A Fog Shallow Fog
3:00 AM 42.8 °F 41.1 °F 42.8 °F 100% 30.24 in 0.6 mi SSE 3.5 mph - N/A   Clear
3:07 AM 42.8 °F 40.1 °F 41.0 °F 93% 30.24 in 0.5 mi SSE 4.6 mph - N/A Fog Fog
4:00 AM 42.8 °F - 42.8 °F 100% 30.24 in 0.5 mi ENE 2.3 mph - N/A Fog Fog
4:12 AM 42.8 °F 40.1 °F 42.8 °F 100% 30.24 in 0.4 mi ESE 4.6 mph - N/A Fog Fog
4:51 AM 41.0 °F 35.8 °F 41.0 °F 100% 30.25 in 0.5 mi East 8.1 mph - N/A Fog Fog
5:00 AM 42 °F - 41 °F 95% 30.26 in 1 mi Calm Calm - - Fog Light Fog
5:00 AM 41.0 °F 35.2 °F 41.0 °F 100% 30.25 in 0.6 mi East 9.2 mph - N/A   Clear
5:38 AM 41.0 °F 35.2 °F 41.0 °F 100% 30.26 in 0.4 mi East 9.2 mph - N/A Fog Fog
6:00 AM 41.0 °F 35.8 °F 41.0 °F 100% 30.27 in 0.4 mi East 8.1 mph - N/A Fog Fog
6:21 AM 41.0 °F 35.8 °F 41.0 °F 100% 30.27 in 0.2 mi East 8.1 mph - N/A Fog Fog
7:00 AM 42.8 °F 40.1 °F 41.0 °F 93% 30.27 in 0.2 mi SE 4.6 mph - N/A Fog Fog
7:23 AM 42.8 °F - 42.8 °F 100% 30.28 in 0.1 mi Calm Calm - N/A Fog Fog
7:58 AM 42.8 °F 39.3 °F 42.8 °F 100% 30.29 in 0.2 mi East 5.8 mph - N/A Fog Fog
8:00 AM 42.8 °F - 42.8 °F 100% 30.29 in 0.4 mi North - - N/A Fog Fog
8:05 AM 42.8 °F - 42.8 °F 100% 30.29 in 0.5 mi North - - N/A Fog Fog
8:12 AM 42.8 °F - 42.8 °F 100% 30.29 in 0.8 mi North - - N/A   Clear
8:26 AM 44.6 °F 42.2 °F 42.8 °F 93% 30.29 in 1.0 mi East 4.6 mph - N/A   Clear
8:28 AM 44.6 °F - 42.8 °F 93% 30.29 in 0.8 mi North - - N/A   Clear
8:31 AM 44.6 °F 42.2 °F 42.8 °F 93% 30.30 in 0.5 mi East 4.6 mph - N/A Fog Fog
8:43 AM 44.6 °F 42.2 °F 42.8 °F 93% 30.30 in 0.4 mi East 4.6 mph - N/A Fog Fog
9:00 AM 44.6 °F 43.1 °F 44.6 °F 100% 30.30 in 0.2 mi East 3.5 mph - N/A Fog Fog
9:53 AM 46.4 °F - 46.4 °F 100% 30.30 in 0.4 mi Calm Calm - N/A Fog Fog
10:00 AM 48.2 °F - 46.4 °F 93% 30.30 in 0.2 mi Calm Calm - N/A Fog Fog
10:44 AM 48.2 °F - 46.4 °F 93% 30.30 in 0.5 mi WNW 4.6 mph - N/A Fog Fog
10:48 AM 48.2 °F - 46.4 °F 93% 30.30 in 1.0 mi West 4.6 mph - N/A   Clear
10:55 AM 48.2 °F - 46.4 °F 93% 30.30 in 1.5 mi West 4.6 mph - N/A   Overcast
11:00 AM 47 °F - 47 °F 100% 30.30 in 2 mi West 4.6 mph - -   Mist
11:00 AM 48.2 °F - 46.4 °F 93% 30.30 in 1.8 mi WNW 4.6 mph - N/A   Overcast
11:06 AM 48.2 °F - 48.2 °F 100% 30.30 in 3.0 mi WNW 3.5 mph - N/A   Overcast
11:44 AM 48.2 °F - 48.2 °F 100% 30.30 in 7.0 mi West 3.5 mph - N/A   Mostly Cloudy
12:00 PM 50.0 °F - 50.0 °F 100% 30.30 in 12.0 mi WSW 5.8 mph - N/A   Mostly Cloudy
1:00 PM 51.8 °F - 50.0 °F 94% 30.30 in 15.0 mi West 8.1 mph - N/A   Mostly Cloudy
2:00 PM 51.8 °F - 50.0 °F 94% 30.29 in 15.0 mi WNW 8.1 mph - N/A   Mostly Cloudy
2:35 PM 50.0 °F - 48.2 °F 94% 30.28 in 12.0 mi West 10.4 mph - N/A   Overcast
2:48 PM 50.0 °F - 48.2 °F 94% 30.28 in 5.0 mi WNW 8.1 mph - N/A   Overcast
2:51 PM 50.0 °F - 48.2 °F 94% 30.28 in 3.0 mi WNW 8.1 mph - N/A   Overcast
2:56 PM - - - N/A% - 2.0 mi North - - N/A   Overcast
3:00 PM 50.0 °F - - N/A% 30.27 in 1.0 mi WNW 5.8 mph - N/A   Overcast
3:27 PM 50.0 °F - 48.2 °F 94% 30.27 in 0.5 mi West 8.1 mph - N/A Fog Fog
3:38 PM 50.0 °F - 48.2 °F 94% 30.27 in 1.0 mi WNW 9.2 mph - N/A   Overcast
3:51 PM 50.0 °F - 48.2 °F 94% 30.27 in 0.6 mi North - - N/A Fog Fog
4:00 PM 50.0 °F - 48.2 °F 94% 30.26 in 0.5 mi North - - N/A Fog Fog
4:12 PM 50.0 °F - 50.0 °F 100% 30.26 in 0.4 mi North - - N/A Fog Fog
4:16 PM 50.0 °F - 50.0 °F 100% 30.25 in 0.5 mi North - - N/A Fog Fog
5:00 PM 49 °F - 48 °F 97% 30.25 in 0 mi WNW 9.2 mph - - Fog Partial Fog
5:00 PM 48.2 °F - 48.2 °F 100% 30.25 in 0.4 mi WNW 9.2 mph - N/A Fog Fog
6:00 PM 48.2 °F - 48.2 °F 100% 30.25 in 0.4 mi WNW 9.2 mph - N/A Fog Fog
7:00 PM 48.2 °F - 48.2 °F 100% 30.25 in 0.4 mi West 5.8 mph - N/A Fog Fog
8:00 PM 48.2 °F - 48.2 °F 100% 30.25 in 0.4 mi WNW 3.5 mph - N/A Fog Fog
9:00 PM 48.2 °F - 48.2 °F 100% 30.25 in 0.2 mi Variable 2.3 mph - N/A Fog Fog
10:00 PM 48.2 °F - 46.4 °F 93% 30.27 in 0.2 mi Calm Calm - N/A Fog Fog
10:51 PM 48.2 °F - 46.4 °F 93% 30.26 in 0.1 mi Calm Calm - N/A Fog Fog
11:00 PM 47 °F - 47 °F 100% 30.27 in 0 mi North 1.2 mph - - Fog Partial Fog
11:00 PM 48.2 °F - 46.4 °F 93% 30.27 in 0.1 mi Calm Calm - N/A Fog Fog